Address 0x44567d05f8c13fbf45edc8a66ebbf1fdad4ef0bf

 
Txn Hash
Block
From
To
Value [Txn Fee]
0x31a9ad99ea1f58e5a01c943450ab493ed60e58cb783bd47e45bda25ced2ff0f082082002021-06-11 15:51:202 days 20 hrs ago0x44567d05f8c13fbf45edc8a66ebbf1fdad4ef0bfOUT BUSD-T Stablecoin0 BNB0.00022203
0x96f29a2d471a1ab8d641bb409c8c4991f7c92595158add9a04f96897f3db12c582029712021-06-11 11:29:243 days 1 hr ago0x44567d05f8c13fbf45edc8a66ebbf1fdad4ef0bfOUT Venus: vUSDT Token0 BNB0.00087091
0xc0ca187b54f32cae7e0b5743972580efe9e3953faf2899fe972cb4fc01c0f8ef81893912021-06-11 0:09:093 days 12 hrs ago0x44567d05f8c13fbf45edc8a66ebbf1fdad4ef0bfOUT Binance: BUSD Stablecoin0 BNB0.000255695
0xfb0f53d9391ab52784a64552ee680b038d1e012768094310cdc6a52f88b3009d81893302021-06-11 0:06:063 days 12 hrs ago0x44567d05f8c13fbf45edc8a66ebbf1fdad4ef0bfOUT Venus: vBUSD Token0 BNB0.002246305
0xceb66400c5f822c271d65f1b5676e90d3948e96ebee16d3e1f1961f320dd685281182922021-06-08 12:40:555 days 23 hrs ago0x44567d05f8c13fbf45edc8a66ebbf1fdad4ef0bfOUT Venus: XVS Token0 BNB0.00023781
0x4b1445b7f5cb44827ddd5cb294f669d8218e2223e1acd66e5d78f764d9598b7980631602021-06-06 14:40:287 days 21 hrs ago0x44567d05f8c13fbf45edc8a66ebbf1fdad4ef0bfOUT Venus: vXVS Token0 BNB0.000828515
0x716f34100211bbda7dedf09d34dd7f6ee94c2bbe6d18c94e9bbbdcdd4a2645fa80430052021-06-05 21:49:558 days 14 hrs ago0x44567d05f8c13fbf45edc8a66ebbf1fdad4ef0bfOUT BUSD-T Stablecoin0 BNB0.000180695
0x9626fe93c431b44b0384143a94e8f608054244490d46394fd7a8c8f7a9c8119580429482021-06-05 21:47:048 days 14 hrs ago0x44567d05f8c13fbf45edc8a66ebbf1fdad4ef0bfOUT Venus: vUSDT Token0 BNB0.00210161
0xd57d0e1037317f1b4a02c02f5dec59f106fd9ff0445dca605f35fe16863fed0880420262021-06-05 21:00:588 days 15 hrs ago0x44567d05f8c13fbf45edc8a66ebbf1fdad4ef0bfOUT Venus: vUSDT Token0 BNB0.00098922
0x4d3833106486aaacd10487defce9d2ecf406392de7abae5a7029aa54809e930580420192021-06-05 21:00:378 days 15 hrs ago0x44567d05f8c13fbf45edc8a66ebbf1fdad4ef0bfOUT BUSD-T Stablecoin0 BNB0.00022203
0x292100067171ce284bc010fc9858d02699edaacfeee84ced4162c7e8569b0a9880419822021-06-05 20:58:468 days 15 hrs ago0x44567d05f8c13fbf45edc8a66ebbf1fdad4ef0bfOUT Venus: vUSDT Token0 BNB0.002562285
0xb6dd9d55fd60bc4c3516a53926fe2cac4cef8e0dd6f01a04ccf9acedf24f794179978362021-06-04 8:07:5310 days 4 hrs ago0x44567d05f8c13fbf45edc8a66ebbf1fdad4ef0bfOUT Venus: vXVS Token0 BNB0.000957445
0x020ec555a672a4a3e2d2fc9e43c1fe6c390488691d48a540e7c708817ca5135d79978252021-06-04 8:07:2010 days 4 hrs ago0x44567d05f8c13fbf45edc8a66ebbf1fdad4ef0bfOUT Venus: XVS Token0 BNB0.00023091
0x82c63ad31d6a9f5bbcc7b1d7e15f8326afcdd74d0ff592451b718714bf7d87bf78360652021-05-29 16:49:4115 days 19 hrs ago0x44567d05f8c13fbf45edc8a66ebbf1fdad4ef0bfOUT Binance: BUSD Stablecoin0 BNB0.000180515
0x968a52e0e6a877c831d799b42ff57f888b29cd6336659e479ce6b5d6b9793cb078360182021-05-29 16:47:2015 days 19 hrs ago0x44567d05f8c13fbf45edc8a66ebbf1fdad4ef0bfOUT Venus: vBNB Token0 BNB0.001408735
0x5ba2bcfde3b2d37c7c9eb32fb47afcd42aedb04e049d14d4cf7a20b0628ddb2978360092021-05-29 16:46:5215 days 19 hrs ago0x44567d05f8c13fbf45edc8a66ebbf1fdad4ef0bfOUT Venus: vBUSD Token0 BNB0.00185892
0x986e64e0c41c5134455e0ba308e91d2c1e790f9dd9a3e65441553f214a41bd9677748742021-05-27 13:36:0217 days 22 hrs ago0x44567d05f8c13fbf45edc8a66ebbf1fdad4ef0bfOUT Binance: BUSD Stablecoin0 BNB0.000180695
0xc2ce927b3912b9b3ef916930b4ea52ea6850acdac8c2dfae136b4288cc47178077747872021-05-27 13:31:4117 days 23 hrs ago0x44567d05f8c13fbf45edc8a66ebbf1fdad4ef0bfOUT PancakeSwap: Router v20 BNB0.000884255
0x0d3015d42808937b66611adde6d91633fbbd30084f7e8583f273246901c2d37177747652021-05-27 13:30:3517 days 23 hrs ago0x44567d05f8c13fbf45edc8a66ebbf1fdad4ef0bfOUT Venus: VRT Token0 BNB0.00023091
0xb2caaede05ac7cd9683cd1701c515cc7580c0e7caf111d11ef49b05ddf1f046177440872021-05-26 11:40:0919 days 52 mins ago0x44567d05f8c13fbf45edc8a66ebbf1fdad4ef0bfOUT Venus: vBUSD Token0 BNB0.000972995
0xcdb2d6c329ac9337e600820af0e4ec0f32a3ef666ab679aef4099d00a69b0e9877440782021-05-26 11:39:4219 days 52 mins ago0x44567d05f8c13fbf45edc8a66ebbf1fdad4ef0bfOUT Venus: Distribution0 BNB0.000378655
0x3b25b2d0ecc9a30446ebbdff4d73cc0291467098883d51c3292c8ad5f83931b877114242021-05-25 8:21:4520 days 4 hrs ago0x44567d05f8c13fbf45edc8a66ebbf1fdad4ef0bfOUT Venus: Distribution0 BNB0.000378655
0x8f87c88d372d0c367f4d4096d41520bb311780bdd78a52c7532ce814213b302977114062021-05-25 8:20:5120 days 4 hrs ago0x44567d05f8c13fbf45edc8a66ebbf1fdad4ef0bfOUT Venus: vBNB Token0.04773045 BNB0.000812165
0xf8c998904aff0e08785a0c2dd726f524ac0867c8c12b7994f05aaa43661cb31b77113562021-05-25 8:18:2120 days 4 hrs ago0x44567d05f8c13fbf45edc8a66ebbf1fdad4ef0bfOUT Binance: BUSD Stablecoin0 BNB0.00022203
0x1c7f130548ef003d2cc801bb857fa8e73a554db5eb29851551d24af9968880c877113192021-05-25 8:16:3020 days 4 hrs agoBinance: Hot Wallet 3 IN 0x44567d05f8c13fbf45edc8a66ebbf1fdad4ef0bf0.0745983 BNB0.00021
[ Download CSV Export 
Latest 1 internal transaction
Parent Txn Hash Block From To Value
0x968a52e0e6a877c831d799b42ff57f888b29cd6336659e479ce6b5d6b9793cb078360182021-05-29 16:47:2015 days 19 hrs ago Venus: vBNB Token0x44567d05f8c13fbf45edc8a66ebbf1fdad4ef0bf0.047759719166851262 BNB
[ Download CSV Export 
Loading

Contract Name:
0 BNB

Compiler Version
0

Optimization Enabled:
0 BNB

Other Settings:
-NA-
Block Transaction Gas Used Reward
Age Block Fee Address BC Fee Address Voting Power Jailed Incoming
Block Uncle Number Difficulty Gas Used Reward
Loading
Loading
Make sure to use the "Vote Down" button for any spammy posts, and the "Vote Up" for interesting conversations.